Погода Большое Нарымское

Погода Большое Нарымское : погода сейчас, прогноз погоды и архив. Всё, что Вы хотите узнать о погоде Большое Нарымское!

Поиск расширенной информации на нашем сайте:

Полезная информация: последние блоки аренда офиса в бизнес центре ЭКО , Мироновская ул., 25 описание помещений на сайте

Другие новости

Новости СМИ2

Главная страница сайта

Новости сайта

03.07.2017

Напоминаем, что на нашем специализированном сайте Метеоцентр.Азия вы можете получить высокодетализированные автоматические прогнозы погоды по пунктам России, СНГ и мира в авиационном формате (включающие направление и скорость ветра, видимость, явления погоды, количество и форму облачности, нижнюю и верхнюю границу облачности).

Рекомендуем: Самая актуальная информация напосим курс тут.

Погода Большое Нарымское - сегодня

Время (UTC), дата Ветер
(°,м/с) 
Видим.   Явления Облачность Т
(°С)
Тd
(°С)
f(%) Тe
(°С)
Pmin
(гПа)
dP
(гПа)
Po
(мм)
O2
(г/м3)
Тmin Tmax R s Состояние
почвы
18 17.04.18 030 (СВ) н/о    9/5 1500 м средняя 
[Sc|Ac und]
+7 +3.8 80 +7  1013.9  -1  724  284    +14.5       
21 17.04.18 050 (СВ) н/о    9/6 1500 м средняя 
[Sc|Ac und]
+6 +4.2 88 +6  1014.2  0.1  725  285           
00 18.04.18 300 (СЗ) 20000 м    10/6 1000 м кучево-дожд., средняя 
[Cb cap|Ac und]
+6.4 +4.1 85 +7  1013.9  -0.2  724  284           
03 18.04.18 220 (ЮЗ) 20000 м    10/8 1000 м кучево-дожд., средняя 
[Cb cap|Ac und]
+8.2 +4.9 80 +8  1012.9  -0.7  724  282           
06 18.04.18 220 (ЮЗ) 10 км  слаб. ливневой дождь  10/10 600 м кучево-дожд. 
[Cb cap]
+5.2 +4.5 95 +5  1014.4  725  286  +5         
09 18.04.18 220 (ЮЗ) 4000 м  слаб. ливневой дождь  10/10 600 м кучево-дожд. 
[Cb cap]
+4.9 +4.2 95 +3  1015.1  0.6  725  286           
12 18.04.18 240 (ЮЗ) 10 км  {ливн. осадки}  10/8 600 м кучево-дожд., средняя 
[Cb cap|Ac und]
+4.8 +3.9 94 +3  1016.3  1.1  726  287           
15 18.04.18 220 (ЮЗ) н/о    9/8 1000 м кучево-дожд., средняя 
[Cb cap|Ac As]
+4.3 +2.6 89 +4  1018.9  2.4  728  288    +9       
18 18.04.18 220 (ЮЗ) н/о    9/8 1000 м кучево-дожд., средняя 
[Cb cap|Ac und]
+3.3 +1.8 90 +2  1021.5  2.3  729  290    +9     
21 18.04.18 280 (З) н/о    10/8 1000 м кучево-дожд., средняя 
[Cb cap|Ac und]
+2.5 +1.5 93 +3  1022.3  0.6  730  291           
00 19.04.18 тихо ()   20000 м    10/5 1000 м кучево-дожд., средняя 
[Cb cap|Ac As]
+2.3 +1.3 93 +2  1021.8  -0.5  729  291           
03 19.04.18 210 (ЮЗ) 20000 м    10/8 600 м кучево-дожд., средняя 
[Cb cap|Ac und]
+1.9 +0.6 91 +1  1021.1  -0.8  729  291           
06 19.04.18 тихо ()   20000 м    9/6 1000 м кучево-дожд., средняя 
[Cb cap|Ac trans]
+5.4 +1.4 75 +5  1018.1  -2.2  727  287  +1.2         
09 19.04.18 310 (СЗ) 20000 м    9/9 1000 м кучево-дожд. 
[Cb cap]
+9.3 +3.1 65 +9  1015.6  -1.7  726  282           
12 19.04.18 160 (Ю) 20000 м  гроза без осадков  9/8 1000 м кучево-дожд., средняя 
[Cb cap|Ac trans]
+11.3 +3 57 +11  1013.2  -2  724  280    -1.1       
15 19.04.18 350 (С) н/о  {гроза, ливн. осадки}  10/8 1000 м кучево-дожд., средняя 
[Cb cap|Ac und]
+6.2 +3.7 84 +6  1016.7  2.5  726  286    +11.7       
18 19.04.18 тихо ()   н/о  {гроза, ливн. осадки}  9/6 1000 м кучево-дожд., средняя 
[Cb cap|Ac und]
+4.6 +2.2 84 +5  1019.2  2.1  728  288    +11.7     
21 19.04.18 тихо ()   н/о    9/8 1000 м кучево-дожд., средняя 
[Cb cap|Ac und]
+2.4 +0.6 88 +2  1022.3  2.6  730  291           
00 20.04.18 тихо ()   20000 м    4/3 1500 м верхняя 
[Sc|Ci fib]
+0.2 -0.6 94 1024.3  1.5  731  294           
03 20.04.18 360 (С) 20000 м    3/3 1500 м верхняя 
[Sc|Ci fib]
+3.6 -0.1 77 +4  1024.6  0.9  732  291  -0.4         
06 20.04.18 360 (С) 20000 м    3/3 1500 м 
[Cu med, cong]
+6 -0.2 64 +4  1024.1  -0.1  732  288  -0.4       
09 20.04.18 360 (С) 20000 м    3/3 1500 м 
[Cu med, cong]
+8.6 +0.8 58 +7  1022.5  -1.1  731  285           
15 20.04.18 тихо ()   н/о    ясно 
+3.7 -0.3 75 +4  1023.2  0.3  731  290    +9.4       
18 20.04.18 030 (СВ) н/о    ясно 
-0.1 -1.2 92 -1  1024.3  0.4  731  295    +9.4       
21 20.04.18 040 (СВ) н/о    ясно 
-0.9 -1.5 96 -2  1024  -0.4  731  295           
Время (UTC), дата Ветер
(°,м/с) 
Видим.   Явления Облачность Т
(°С)
Тd
(°С)
f(%) Тe
(°С)
Pmin
(гПа)
dP
(гПа)
Po
(мм)
O2
(г/м3)
Тmin Tmax R s Состояние
почвы

Для получения пояснительной информации подведите курсор к названию столбца.

ПОГОДА Большое Нарымское - архив

Всё, что Вы хотите узнать о погоде Большое Нарымское - удобно и подробно!

Выберите нужную дату (начиная с 1 января 2015* года) и нажмите кнопку "Найти".
Будут отображены архивные сводки погоды по пункту Большое Нарымское, начиная с указанной даты.


Отображать данные в формате CSV (для использования в таблицах Excel)


Внимание! Наш архив погоды предназначен исключительно для личного некоммерческого использования в познавательных целях. Если Вам необходимы официальные справки о состоянии погоды (для производственных, юридических, коммерческих и т.п. целей), обращайтесь в органы Росгидромета.

*Примечание: данная дата относится к архиву по метеостанциям СССР (Россия, СНГ, Балтия).
Архив по метеостанциям Зарубежной Европы и Азии (кроме Китая) хранится 10 дней, по другим регионам земного шара (Китай, Африка, Америка, Австралия, Океания) - 1 день.

Большое Нарымское - район местоположения метеостанции


Название, широта, долгота, высота метеостанции:
Большое Нарымское 49.2°ш. 84.5°д. 401 м над ур. моря [Казахстан]

Дополнительная информация

В oтличие oт бoльшинства пoгoдных сайтoв мы публикуем пoдрoбную метеoинфoрмацию в детальнoм прoфессиoнальнoм фoрмате.

Характеристики температуры и влажнoсти вoздуха измеряются на высoте 2 м в тени вдали oт зданий и деревьев.
Скoрoсть ветра измеряется на высoте 10 м (на урoвне рoста челoвека скoрoсть ветра ниже в 1.5-2 раза). Если метеoстанция нахoдится в гoрoде или в лесу, тo скoрoсть ветра занижена на 2-4 м/с пo сравнению с oткрытым местoм. Скoрoсть ветра над акватoриями крупных рек и oзёр, а также на вершинах хoлмoв на 2-5 м/с выше, чем в oбычных услoвиях.
Атмoсфернoе давление в разных тoчках местнoсти мoжет значительнo oтличаться oт давления на метеoстанции, в зависимoсти oт услoвий рельефа (при пoдъёме на 10 м давление пoнижается примернo на 1 мм рт.ст.).